owner,sensor,date,latitude,longitude,sea_surface_height_above_sea_level,qcFlag 
COMPS,ioos:station:USF.COMPS:FHP:1,2015-09-01T00:00:00Z,28.1530,-82.8010,-0.179,1111122 
COMPS,ioos:station:USF.COMPS:FHP:1,2015-09-01T00:06:00Z,28.1530,-82.8010,-0.189,1111122 
COMPS,ioos:station:USF.COMPS:FHP:1,2015-09-01T00:12:00Z,28.1530,-82.8010,-0.193,1111122 
COMPS,ioos:station:USF.COMPS:FHP:1,2015-09-01T00:18:00Z,28.1530,-82.8010,-0.196,1111122 
COMPS,ioos:station:USF.COMPS:FHP:1,2015-09-01T00:24:00Z,28.1530,-82.8010,-0.187,1111122 
COMPS,ioos:station:USF.COMPS:FHP:1,2015-09-01T00:42:00Z,28.1530,-82.8010,-0.179,1111122 
COMPS,ioos:station:USF.COMPS:FHP:1,2015-09-01T00:54:00Z,28.1530,-82.8010,-0.168,1111122 
COMPS,ioos:station:USF.COMPS:FHP:1,2015-09-01T01:00:00Z,28.1530,-82.8010,-0.159,1111122 
COMPS,ioos:station:USF.COMPS:FHP:1,2015-09-01T01:06:00Z,28.1530,-82.8010,-0.149,1111122 
COMPS,ioos:station:USF.COMPS:FHP:1,2015-09-01T01:18:00Z,28.1530,-82.8010,-0.135,1111122 
COMPS,ioos:station:USF.COMPS:FHP:1,2015-09-01T01:24:00Z,28.1530,-82.8010,-0.121,1111122 
COMPS,ioos:station:USF.COMPS:FHP:1,2015-09-01T01:30:00Z,28.1530,-82.8010,-0.118,1111122 
COMPS,ioos:station:USF.COMPS:FHP:1,2015-09-01T01:36:00Z,28.1530,-82.8010,-0.113,1111122 
COMPS,ioos:station:USF.COMPS:FHP:1,2015-09-01T01:42:00Z,28.1530,-82.8010,-0.108,1111122 
COMPS,ioos:station:USF.COMPS:FHP:1,2015-09-01T01:48:00Z,28.1530,-82.8010,-0.089,1111122 
COMPS,ioos:station:USF.COMPS:FHP:1,2015-09-01T01:54:00Z,28.1530,-82.8010,-0.07,1111122 
COMPS,ioos:station:USF.COMPS:FHP:1,2015-09-01T02:00:00Z,28.1530,-82.8010,-0.05,1111122 
COMPS,ioos:station:USF.COMPS:FHP:1,2015-09-01T02:06:00Z,28.1530,-82.8010,-0.04,1111122 
COMPS,ioos:station:USF.COMPS:FHP:1,2015-09-01T02:12:00Z,28.1530,-82.8010,-0.022,1111122 
COMPS,ioos:station:USF.COMPS:FHP:1,2015-09-01T02:18:00Z,28.1530,-82.8010,-0.003,1111122 
COMPS,ioos:station:USF.COMPS:FHP:1,2015-09-01T02:24:00Z,28.1530,-82.8010,0.012,1111122 
COMPS,ioos:station:USF.COMPS:FHP:1,2015-09-01T02:30:00Z,28.1530,-82.8010,0.031,1111122 
COMPS,ioos:station:USF.COMPS:FHP:1,2015-09-01T02:36:00Z,28.1530,-82.8010,0.052,1111122 
COMPS,ioos:station:USF.COMPS:FHP:1,2015-09-01T02:42:00Z,28.1530,-82.8010,0.072,1111122 
COMPS,ioos:station:USF.COMPS:FHP:1,2015-09-01T02:48:00Z,28.1530,-82.8010,0.093,1111122 
COMPS,ioos:station:USF.COMPS:FHP:1,2015-09-01T02:54:00Z,28.1530,-82.8010,0.11,1111122 
COMPS,ioos:station:USF.COMPS:FHP:1,2015-09-01T03:00:00Z,28.1530,-82.8010,0.133,1111122 
COMPS,ioos:station:USF.COMPS:FHP:1,2015-09-01T03:06:00Z,28.1530,-82.8010,0.156,1111122 
COMPS,ioos:station:USF.COMPS:FHP:1,2015-09-01T03:12:00Z,28.1530,-82.8010,0.186,1111122 
COMPS,ioos:station:USF.COMPS:FHP:1,2015-09-01T03:18:00Z,28.1530,-82.8010,0.215,1111122 
COMPS,ioos:station:USF.COMPS:FHP:1,2015-09-01T03:24:00Z,28.1530,-82.8010,0.244,1111122 
COMPS,ioos:station:USF.COMPS:FHP:1,2015-09-01T03:30:00Z,28.1530,-82.8010,0.269,1111122 
COMPS,ioos:station:USF.COMPS:FHP:1,2015-09-01T03:36:00Z,28.1530,-82.8010,0.295,1111122 
COMPS,ioos:station:USF.COMPS:FHP:1,2015-09-01T03:42:00Z,28.1530,-82.8010,0.319,1111122 
COMPS,ioos:station:USF.COMPS:FHP:1,2015-09-01T03:48:00Z,28.1530,-82.8010,0.347,1111122 
COMPS,ioos:station:USF.COMPS:FHP:1,2015-09-01T03:54:00Z,28.1530,-82.8010,0.372,1111122 
COMPS,ioos:station:USF.COMPS:FHP:1,2015-09-01T04:00:00Z,28.1530,-82.8010,0.402,1111122 
COMPS,ioos:station:USF.COMPS:FHP:1,2015-09-01T04:06:00Z,28.1530,-82.8010,0.424,1111122 
COMPS,ioos:station:USF.COMPS:FHP:1,2015-09-01T04:12:00Z,28.1530,-82.8010,0.45,1111122 
COMPS,ioos:station:USF.COMPS:FHP:1,2015-09-01T04:18:00Z,28.1530,-82.8010,0.467,1111122 
COMPS,ioos:station:USF.COMPS:FHP:1,2015-09-01T04:24:00Z,28.1530,-82.8010,0.493,1111122 
COMPS,ioos:station:USF.COMPS:FHP:1,2015-09-01T04:30:00Z,28.1530,-82.8010,0.515,1111122 
COMPS,ioos:station:USF.COMPS:FHP:1,2015-09-01T04:36:00Z,28.1530,-82.8010,0.539,1111122 
COMPS,ioos:station:USF.COMPS:FHP:1,2015-09-01T04:42:00Z,28.1530,-82.8010,0.553,1111122 
COMPS,ioos:station:USF.COMPS:FHP:1,2015-09-01T04:48:00Z,28.1530,-82.8010,0.567,1111122 
COMPS,ioos:station:USF.COMPS:FHP:1,2015-09-01T04:54:00Z,28.1530,-82.8010,0.581,1111122 
COMPS,ioos:station:USF.COMPS:FHP:1,2015-09-01T05:00:00Z,28.1530,-82.8010,0.595,1111122 
COMPS,ioos:station:USF.COMPS:FHP:1,2015-09-01T05:06:00Z,28.1530,-82.8010,0.611,1111122 
COMPS,ioos:station:USF.COMPS:FHP:1,2015-09-01T05:12:00Z,28.1530,-82.8010,0.622,1111122 
COMPS,ioos:station:USF.COMPS:FHP:1,2015-09-01T05:18:00Z,28.1530,-82.8010,0.629,1111122 
COMPS,ioos:station:USF.COMPS:FHP:1,2015-09-01T05:30:00Z,28.1530,-82.8010,0.651,1111122 
COMPS,ioos:station:USF.COMPS:FHP:1,2015-09-01T05:36:00Z,28.1530,-82.8010,0.665,1111122 
COMPS,ioos:station:USF.COMPS:FHP:1,2015-09-01T05:42:00Z,28.1530,-82.8010,0.677,1111122 
COMPS,ioos:station:USF.COMPS:FHP:1,2015-09-01T05:48:00Z,28.1530,-82.8010,0.683,1111122 
COMPS,ioos:station:USF.COMPS:FHP:1,2015-09-01T05:54:00Z,28.1530,-82.8010,0.681,1111122 
COMPS,ioos:station:USF.COMPS:FHP:1,2015-09-01T06:00:00Z,28.1530,-82.8010,0.676,1111122 
COMPS,ioos:station:USF.COMPS:FHP:1,2015-09-01T06:12:00Z,28.1530,-82.8010,0.659,1111122 
COMPS,ioos:station:USF.COMPS:FHP:1,2015-09-01T06:24:00Z,28.1530,-82.8010,0.656,1111122 
COMPS,ioos:station:USF.COMPS:FHP:1,2015-09-01T06:30:00Z,28.1530,-82.8010,0.648,1111122 
COMPS,ioos:station:USF.COMPS:FHP:1,2015-09-01T06:36:00Z,28.1530,-82.8010,0.634,1111122 
COMPS,ioos:station:USF.COMPS:FHP:1,2015-09-01T06:42:00Z,28.1530,-82.8010,0.622,1111122 
COMPS,ioos:station:USF.COMPS:FHP:1,2015-09-01T06:48:00Z,28.1530,-82.8010,0.613,1111122 
COMPS,ioos:station:USF.COMPS:FHP:1,2015-09-01T06:54:00Z,28.1530,-82.8010,0.611,1111122 
COMPS,ioos:station:USF.COMPS:FHP:1,2015-09-01T07:18:00Z,28.1530,-82.8010,0.584,1111122 
COMPS,ioos:station:USF.COMPS:FHP:1,2015-09-01T07:24:00Z,28.1530,-82.8010,0.574,1111122 
COMPS,ioos:station:USF.COMPS:FHP:1,2015-09-01T07:30:00Z,28.1530,-82.8010,0.569,1111122 
COMPS,ioos:station:USF.COMPS:FHP:1,2015-09-01T07:36:00Z,28.1530,-82.8010,0.56,1111122 
COMPS,ioos:station:USF.COMPS:FHP:1,2015-09-01T07:42:00Z,28.1530,-82.8010,0.55,1111122 
COMPS,ioos:station:USF.COMPS:FHP:1,2015-09-01T07:48:00Z,28.1530,-82.8010,0.537,1111122 
COMPS,ioos:station:USF.COMPS:FHP:1,2015-09-01T07:54:00Z,28.1530,-82.8010,0.52,1111122 
COMPS,ioos:station:USF.COMPS:FHP:1,2015-09-01T08:00:00Z,28.1530,-82.8010,0.506,1111122 
COMPS,ioos:station:USF.COMPS:FHP:1,2015-09-01T08:06:00Z,28.1530,-82.8010,0.497,1111122 
COMPS,ioos:station:USF.COMPS:FHP:1,2015-09-01T08:12:00Z,28.1530,-82.8010,0.486,1111122 
COMPS,ioos:station:USF.COMPS:FHP:1,2015-09-01T08:18:00Z,28.1530,-82.8010,0.472,1111122 
COMPS,ioos:station:USF.COMPS:FHP:1,2015-09-01T08:24:00Z,28.1530,-82.8010,0.455,1111122 
COMPS,ioos:station:USF.COMPS:FHP:1,2015-09-01T08:30:00Z,28.1530,-82.8010,0.438,1111122 
COMPS,ioos:station:USF.COMPS:FHP:1,2015-09-01T08:36:00Z,28.1530,-82.8010,0.42,1111122 
COMPS,ioos:station:USF.COMPS:FHP:1,2015-09-01T08:42:00Z,28.1530,-82.8010,0.402,1111122 
COMPS,ioos:station:USF.COMPS:FHP:1,2015-09-01T08:48:00Z,28.1530,-82.8010,0.384,1111122 
COMPS,ioos:station:USF.COMPS:FHP:1,2015-09-01T08:54:00Z,28.1530,-82.8010,0.363,1111122 
COMPS,ioos:station:USF.COMPS:FHP:1,2015-09-01T09:00:00Z,28.1530,-82.8010,0.35,1111122 
COMPS,ioos:station:USF.COMPS:FHP:1,2015-09-01T09:12:00Z,28.1530,-82.8010,0.31,1111122 
COMPS,ioos:station:USF.COMPS:FHP:1,2015-09-01T09:24:00Z,28.1530,-82.8010,0.276,1111122 
COMPS,ioos:station:USF.COMPS:FHP:1,2015-09-01T09:30:00Z,28.1530,-82.8010,0.259,1111122 
COMPS,ioos:station:USF.COMPS:FHP:1,2015-09-01T09:36:00Z,28.1530,-82.8010,0.236,1111122 
COMPS,ioos:station:USF.COMPS:FHP:1,2015-09-01T09:42:00Z,28.1530,-82.8010,0.212,1111122 
COMPS,ioos:station:USF.COMPS:FHP:1,2015-09-01T09:48:00Z,28.1530,-82.8010,0.191,1111122 
COMPS,ioos:station:USF.COMPS:FHP:1,2015-09-01T09:54:00Z,28.1530,-82.8010,0.174,1111122 
COMPS,ioos:station:USF.COMPS:FHP:1,2015-09-01T10:00:00Z,28.1530,-82.8010,0.156,1111122 
COMPS,ioos:station:USF.COMPS:FHP:1,2015-09-01T10:06:00Z,28.1530,-82.8010,0.135,1111122 
COMPS,ioos:station:USF.COMPS:FHP:1,2015-09-01T10:12:00Z,28.1530,-82.8010,0.113,1111122 
COMPS,ioos:station:USF.COMPS:FHP:1,2015-09-01T10:18:00Z,28.1530,-82.8010,0.094,1111122 
COMPS,ioos:station:USF.COMPS:FHP:1,2015-09-01T10:24:00Z,28.1530,-82.8010,0.073,1111122 
COMPS,ioos:station:USF.COMPS:FHP:1,2015-09-01T10:30:00Z,28.1530,-82.8010,0.05,1111122 
COMPS,ioos:station:USF.COMPS:FHP:1,2015-09-01T10:36:00Z,28.1530,-82.8010,0.025,1111122 
COMPS,ioos:station:USF.COMPS:FHP:1,2015-09-01T10:42:00Z,28.1530,-82.8010,0.003,1111122 
COMPS,ioos:station:USF.COMPS:FHP:1,2015-09-01T10:48:00Z,28.1530,-82.8010,-0.017,1111122 
COMPS,ioos:station:USF.COMPS:FHP:1,2015-09-01T10:54:00Z,28.1530,-82.8010,-0.032,1111122 
COMPS,ioos:station:USF.COMPS:FHP:1,2015-09-01T11:00:00Z,28.1530,-82.8010,-0.054,1111122 
COMPS,ioos:station:USF.COMPS:FHP:1,2015-09-01T11:06:00Z,28.1530,-82.8010,-0.068,1111122 
COMPS,ioos:station:USF.COMPS:FHP:1,2015-09-01T11:12:00Z,28.1530,-82.8010,-0.081,1111122 
COMPS,ioos:station:USF.COMPS:FHP:1,2015-09-01T11:18:00Z,28.1530,-82.8010,-0.094,1111122 
COMPS,ioos:station:USF.COMPS:FHP:1,2015-09-01T11:24:00Z,28.1530,-82.8010,-0.111,1111122 
COMPS,ioos:station:USF.COMPS:FHP:1,2015-09-01T11:36:00Z,28.1530,-82.8010,-0.135,1111122 
COMPS,ioos:station:USF.COMPS:FHP:1,2015-09-01T11:42:00Z,28.1530,-82.8010,-0.147,1111122 
COMPS,ioos:station:USF.COMPS:FHP:1,2015-09-01T11:48:00Z,28.1530,-82.8010,-0.159,1111122 
COMPS,ioos:station:USF.COMPS:FHP:1,2015-09-01T11:54:00Z,28.1530,-82.8010,-0.17,1111122 
COMPS,ioos:station:USF.COMPS:FHP:1,2015-09-01T12:00:00Z,28.1530,-82.8010,-0.182,1111122 
COMPS,ioos:station:USF.COMPS:FHP:1,2015-09-01T12:18:00Z,28.1530,-82.8010,-0.198,1111122 
COMPS,ioos:station:USF.COMPS:FHP:1,2015-09-01T12:24:00Z,28.1530,-82.8010,-0.203,1111122 
COMPS,ioos:station:USF.COMPS:FHP:1,2015-09-01T12:30:00Z,28.1530,-82.8010,-0.206,1111122 
COMPS,ioos:station:USF.COMPS:FHP:1,2015-09-01T12:36:00Z,28.1530,-82.8010,-0.209,1111122 
COMPS,ioos:station:USF.COMPS:FHP:1,2015-09-01T12:42:00Z,28.1530,-82.8010,-0.203,1111122 
COMPS,ioos:station:USF.COMPS:FHP:1,2015-09-01T12:48:00Z,28.1530,-82.8010,-0.206,1111122 
COMPS,ioos:station:USF.COMPS:FHP:1,2015-09-01T12:54:00Z,28.1530,-82.8010,-0.21,1111122 
COMPS,ioos:station:USF.COMPS:FHP:1,2015-09-01T13:00:00Z,28.1530,-82.8010,-0.207,1111122 
COMPS,ioos:station:USF.COMPS:FHP:1,2015-09-01T13:06:00Z,28.1530,-82.8010,-0.203,1111122 
COMPS,ioos:station:USF.COMPS:FHP:1,2015-09-01T13:12:00Z,28.1530,-82.8010,-0.186,1111122 
COMPS,ioos:station:USF.COMPS:FHP:1,2015-09-01T13:18:00Z,28.1530,-82.8010,-0.182,1111122 
COMPS,ioos:station:USF.COMPS:FHP:1,2015-09-01T13:24:00Z,28.1530,-82.8010,-0.17,1111122 
COMPS,ioos:station:USF.COMPS:FHP:1,2015-09-01T13:30:00Z,28.1530,-82.8010,-0.158,1111122 
COMPS,ioos:station:USF.COMPS:FHP:1,2015-09-01T13:36:00Z,28.1530,-82.8010,-0.155,1111122 
COMPS,ioos:station:USF.COMPS:FHP:1,2015-09-01T13:42:00Z,28.1530,-82.8010,-0.14,1111122 
COMPS,ioos:station:USF.COMPS:FHP:1,2015-09-01T13:48:00Z,28.1530,-82.8010,-0.124,1111122 
COMPS,ioos:station:USF.COMPS:FHP:1,2015-09-01T13:54:00Z,28.1530,-82.8010,-0.107,1111122 
COMPS,ioos:station:USF.COMPS:FHP:1,2015-09-01T14:00:00Z,28.1530,-82.8010,-0.086,1111122 
COMPS,ioos:station:USF.COMPS:FHP:1,2015-09-01T14:06:00Z,28.1530,-82.8010,-0.064,1111122 
COMPS,ioos:station:USF.COMPS:FHP:1,2015-09-01T14:12:00Z,28.1530,-82.8010,-0.048,1111122 
COMPS,ioos:station:USF.COMPS:FHP:1,2015-09-01T14:18:00Z,28.1530,-82.8010,-0.03,1111122 
COMPS,ioos:station:USF.COMPS:FHP:1,2015-09-01T14:24:00Z,28.1530,-82.8010,-0.01,1111122 
COMPS,ioos:station:USF.COMPS:FHP:1,2015-09-01T14:30:00Z,28.1530,-82.8010,0.009,1111122 
COMPS,ioos:station:USF.COMPS:FHP:1,2015-09-01T14:36:00Z,28.1530,-82.8010,0.043,1111122 
COMPS,ioos:station:USF.COMPS:FHP:1,2015-09-01T14:42:00Z,28.1530,-82.8010,0.085,1111122 
COMPS,ioos:station:USF.COMPS:FHP:1,2015-09-01T14:48:00Z,28.1530,-82.8010,0.147,1111122 
COMPS,ioos:station:USF.COMPS:FHP:1,2015-09-01T14:54:00Z,28.1530,-82.8010,0.178,1111122 
COMPS,ioos:station:USF.COMPS:FHP:1,2015-09-01T15:00:00Z,28.1530,-82.8010,0.177,1111122 
COMPS,ioos:station:USF.COMPS:FHP:1,2015-09-01T15:06:00Z,28.1530,-82.8010,0.193,1111122 
COMPS,ioos:station:USF.COMPS:FHP:1,2015-09-01T15:12:00Z,28.1530,-82.8010,0.21,1111122 
COMPS,ioos:station:USF.COMPS:FHP:1,2015-09-01T15:18:00Z,28.1530,-82.8010,0.234,1111122 
COMPS,ioos:station:USF.COMPS:FHP:1,2015-09-01T15:24:00Z,28.1530,-82.8010,0.253,1111122 
COMPS,ioos:station:USF.COMPS:FHP:1,2015-09-01T15:30:00Z,28.1530,-82.8010,0.269,1111122 
COMPS,ioos:station:USF.COMPS:FHP:1,2015-09-01T15:36:00Z,28.1530,-82.8010,0.306,1111122 
COMPS,ioos:station:USF.COMPS:FHP:1,2015-09-01T15:42:00Z,28.1530,-82.8010,0.329,1111122 
COMPS,ioos:station:USF.COMPS:FHP:1,2015-09-01T15:48:00Z,28.1530,-82.8010,0.352,1111122 
COMPS,ioos:station:USF.COMPS:FHP:1,2015-09-01T15:54:00Z,28.1530,-82.8010,0.37,1111122 
COMPS,ioos:station:USF.COMPS:FHP:1,2015-09-01T16:00:00Z,28.1530,-82.8010,0.39,1111122 
COMPS,ioos:station:USF.COMPS:FHP:1,2015-09-01T16:06:00Z,28.1530,-82.8010,0.409,1111122 
COMPS,ioos:station:USF.COMPS:FHP:1,2015-09-01T16:12:00Z,28.1530,-82.8010,0.44,1111122 
COMPS,ioos:station:USF.COMPS:FHP:1,2015-09-01T16:18:00Z,28.1530,-82.8010,0.469,1111122 
COMPS,ioos:station:USF.COMPS:FHP:1,2015-09-01T16:24:00Z,28.1530,-82.8010,0.513,1111122 
COMPS,ioos:station:USF.COMPS:FHP:1,2015-09-01T16:30:00Z,28.1530,-82.8010,0.537,1111122 
COMPS,ioos:station:USF.COMPS:FHP:1,2015-09-01T16:36:00Z,28.1530,-82.8010,0.57,1111122 
COMPS,ioos:station:USF.COMPS:FHP:1,2015-09-01T16:42:00Z,28.1530,-82.8010,0.588,1111122 
COMPS,ioos:station:USF.COMPS:FHP:1,2015-09-01T16:48:00Z,28.1530,-82.8010,0.609,1111122 
COMPS,ioos:station:USF.COMPS:FHP:1,2015-09-01T16:54:00Z,28.1530,-82.8010,0.62,1111122 
COMPS,ioos:station:USF.COMPS:FHP:1,2015-09-01T17:00:00Z,28.1530,-82.8010,0.635,1111122 
COMPS,ioos:station:USF.COMPS:FHP:1,2015-09-01T17:06:00Z,28.1530,-82.8010,0.649,1111122 
COMPS,ioos:station:USF.COMPS:FHP:1,2015-09-01T17:12:00Z,28.1530,-82.8010,0.655,1111122 
COMPS,ioos:station:USF.COMPS:FHP:1,2015-09-01T17:18:00Z,28.1530,-82.8010,0.65,1111122 
COMPS,ioos:station:USF.COMPS:FHP:1,2015-09-01T17:24:00Z,28.1530,-82.8010,0.65,1111122 
COMPS,ioos:station:USF.COMPS:FHP:1,2015-09-01T17:30:00Z,28.1530,-82.8010,0.65,1111122 
COMPS,ioos:station:USF.COMPS:FHP:1,2015-09-01T17:36:00Z,28.1530,-82.8010,0.653,1111122 
COMPS,ioos:station:USF.COMPS:FHP:1,2015-09-01T17:42:00Z,28.1530,-82.8010,0.673,1111122 
COMPS,ioos:station:USF.COMPS:FHP:1,2015-09-01T17:48:00Z,28.1530,-82.8010,0.694,1111122 
COMPS,ioos:station:USF.COMPS:FHP:1,2015-09-01T17:54:00Z,28.1530,-82.8010,0.705,1111122 
COMPS,ioos:station:USF.COMPS:FHP:1,2015-09-01T18:00:00Z,28.1530,-82.8010,0.721,1111122 
COMPS,ioos:station:USF.COMPS:FHP:1,2015-09-01T18:06:00Z,28.1530,-82.8010,0.73,1111122 
COMPS,ioos:station:USF.COMPS:FHP:1,2015-09-01T18:12:00Z,28.1530,-82.8010,0.731,1111122 
COMPS,ioos:station:USF.COMPS:FHP:1,2015-09-01T18:18:00Z,28.1530,-82.8010,0.73,1111122 
COMPS,ioos:station:USF.COMPS:FHP:1,2015-09-01T18:24:00Z,28.1530,-82.8010,0.734,1111122 
COMPS,ioos:station:USF.COMPS:FHP:1,2015-09-01T18:30:00Z,28.1530,-82.8010,0.734,1111122 
COMPS,ioos:station:USF.COMPS:FHP:1,2015-09-01T18:36:00Z,28.1530,-82.8010,0.73,1111122 
COMPS,ioos:station:USF.COMPS:FHP:1,2015-09-01T18:42:00Z,28.1530,-82.8010,0.727,1111122 
COMPS,ioos:station:USF.COMPS:FHP:1,2015-09-01T18:48:00Z,28.1530,-82.8010,0.732,1111122 
COMPS,ioos:station:USF.COMPS:FHP:1,2015-09-01T18:54:00Z,28.1530,-82.8010,0.73,1111122 
COMPS,ioos:station:USF.COMPS:FHP:1,2015-09-01T19:00:00Z,28.1530,-82.8010,0.716,1111122 
COMPS,ioos:station:USF.COMPS:FHP:1,2015-09-01T19:06:00Z,28.1530,-82.8010,0.707,1111122 
COMPS,ioos:station:USF.COMPS:FHP:1,2015-09-01T19:12:00Z,28.1530,-82.8010,0.677,1111122 
COMPS,ioos:station:USF.COMPS:FHP:1,2015-09-01T19:18:00Z,28.1530,-82.8010,0.676,1111122 
COMPS,ioos:station:USF.COMPS:FHP:1,2015-09-01T19:24:00Z,28.1530,-82.8010,0.664,1111122 
COMPS,ioos:station:USF.COMPS:FHP:1,2015-09-01T19:30:00Z,28.1530,-82.8010,0.664,1111122 
COMPS,ioos:station:USF.COMPS:FHP:1,2015-09-01T19:36:00Z,28.1530,-82.8010,0.662,1111122 
COMPS,ioos:station:USF.COMPS:FHP:1,2015-09-01T19:42:00Z,28.1530,-82.8010,0.648,1111122 
COMPS,ioos:station:USF.COMPS:FHP:1,2015-09-01T19:48:00Z,28.1530,-82.8010,0.635,1111122 
COMPS,ioos:station:USF.COMPS:FHP:1,2015-09-01T19:54:00Z,28.1530,-82.8010,0.631,1111122 
COMPS,ioos:station:USF.COMPS:FHP:1,2015-09-01T20:00:00Z,28.1530,-82.8010,0.614,1111122 
COMPS,ioos:station:USF.COMPS:FHP:1,2015-09-01T20:06:00Z,28.1530,-82.8010,0.607,1111122 
COMPS,ioos:station:USF.COMPS:FHP:1,2015-09-01T20:12:00Z,28.1530,-82.8010,0.589,1111122 
COMPS,ioos:station:USF.COMPS:FHP:1,2015-09-01T20:18:00Z,28.1530,-82.8010,0.572,1111122 
COMPS,ioos:station:USF.COMPS:FHP:1,2015-09-01T20:24:00Z,28.1530,-82.8010,0.554,1111122 
COMPS,ioos:station:USF.COMPS:FHP:1,2015-09-01T20:30:00Z,28.1530,-82.8010,0.539,1111122 
COMPS,ioos:station:USF.COMPS:FHP:1,2015-09-01T20:36:00Z,28.1530,-82.8010,0.527,1111122 
COMPS,ioos:station:USF.COMPS:FHP:1,2015-09-01T20:42:00Z,28.1530,-82.8010,0.512,1111122 
COMPS,ioos:station:USF.COMPS:FHP:1,2015-09-01T20:48:00Z,28.1530,-82.8010,0.506,1111122 
COMPS,ioos:station:USF.COMPS:FHP:1,2015-09-01T20:54:00Z,28.1530,-82.8010,0.483,1111122 
COMPS,ioos:station:USF.COMPS:FHP:1,2015-09-01T21:00:00Z,28.1530,-82.8010,0.472,1111122 
COMPS,ioos:station:USF.COMPS:FHP:1,2015-09-01T21:06:00Z,28.1530,-82.8010,0.454,1111122 
COMPS,ioos:station:USF.COMPS:FHP:1,2015-09-01T21:12:00Z,28.1530,-82.8010,0.446,1111122 
COMPS,ioos:station:USF.COMPS:FHP:1,2015-09-01T21:18:00Z,28.1530,-82.8010,0.432,1111122 
COMPS,ioos:station:USF.COMPS:FHP:1,2015-09-01T21:24:00Z,28.1530,-82.8010,0.415,1111122 
COMPS,ioos:station:USF.COMPS:FHP:1,2015-09-01T21:30:00Z,28.1530,-82.8010,0.394,1111122 
COMPS,ioos:station:USF.COMPS:FHP:1,2015-09-01T21:36:00Z,28.1530,-82.8010,0.379,1111122 
COMPS,ioos:station:USF.COMPS:FHP:1,2015-09-01T21:42:00Z,28.1530,-82.8010,0.36,1111122 
COMPS,ioos:station:USF.COMPS:FHP:1,2015-09-01T21:48:00Z,28.1530,-82.8010,0.335,1111122 
COMPS,ioos:station:USF.COMPS:FHP:1,2015-09-01T21:54:00Z,28.1530,-82.8010,0.317,1111122 
COMPS,ioos:station:USF.COMPS:FHP:1,2015-09-01T22:00:00Z,28.1530,-82.8010,0.292,1111122 
COMPS,ioos:station:USF.COMPS:FHP:1,2015-09-01T22:06:00Z,28.1530,-82.8010,0.271,1111122 
COMPS,ioos:station:USF.COMPS:FHP:1,2015-09-01T22:12:00Z,28.1530,-82.8010,0.244,1111122 
COMPS,ioos:station:USF.COMPS:FHP:1,2015-09-01T22:18:00Z,28.1530,-82.8010,0.22,1111122 
COMPS,ioos:station:USF.COMPS:FHP:1,2015-09-01T22:24:00Z,28.1530,-82.8010,0.197,1111122 
COMPS,ioos:station:USF.COMPS:FHP:1,2015-09-01T22:30:00Z,28.1530,-82.8010,0.175,1111122 
COMPS,ioos:station:USF.COMPS:FHP:1,2015-09-01T22:36:00Z,28.1530,-82.8010,0.152,1111122 
COMPS,ioos:station:USF.COMPS:FHP:1,2015-09-01T22:42:00Z,28.1530,-82.8010,0.133,1111122 
COMPS,ioos:station:USF.COMPS:FHP:1,2015-09-01T22:48:00Z,28.1530,-82.8010,0.115,1111122 
COMPS,ioos:station:USF.COMPS:FHP:1,2015-09-01T22:54:00Z,28.1530,-82.8010,0.103,1111122 
COMPS,ioos:station:USF.COMPS:FHP:1,2015-09-01T23:00:00Z,28.1530,-82.8010,0.087,1111122 
COMPS,ioos:station:USF.COMPS:FHP:1,2015-09-01T23:06:00Z,28.1530,-82.8010,0.075,1111122 
COMPS,ioos:station:USF.COMPS:FHP:1,2015-09-01T23:12:00Z,28.1530,-82.8010,0.059,1111122 
COMPS,ioos:station:USF.COMPS:FHP:1,2015-09-01T23:30:00Z,28.1530,-82.8010,0.033,1111122 
COMPS,ioos:station:USF.COMPS:FHP:1,2015-09-01T23:36:00Z,28.1530,-82.8010,0.017,1111122 
COMPS,ioos:station:USF.COMPS:FHP:1,2015-09-01T23:42:00Z,28.1530,-82.8010,0.003,1111122 
COMPS,ioos:station:USF.COMPS:FHP:1,2015-09-01T23:48:00Z,28.1530,-82.8010,-0.006,1111122 
COMPS,ioos:station:USF.COMPS:FHP:1,2015-09-01T23:54:00Z,28.1530,-82.8010,-0.019,1111122 
COMPS,ioos:station:USF.COMPS:FHP:1,2015-09-02T00:00:00Z,28.1530,-82.8010,-0.028,1111122 
COMPS,ioos:station:USF.COMPS:FHP:1,2015-09-02T00:06:00Z,28.1530,-82.8010,-0.042,1111122 
COMPS,ioos:station:USF.COMPS:FHP:1,2015-09-02T00:12:00Z,28.1530,-82.8010,-0.049,1111122 
COMPS,ioos:station:USF.COMPS:FHP:1,2015-09-02T00:18:00Z,28.1530,-82.8010,-0.055,1111122 
COMPS,ioos:station:USF.COMPS:FHP:1,2015-09-02T00:24:00Z,28.1530,-82.8010,-0.064,1111122 
COMPS,ioos:station:USF.COMPS:FHP:1,2015-09-02T00:54:00Z,28.1530,-82.8010,-0.081,1111122 
COMPS,ioos:station:USF.COMPS:FHP:1,2015-09-02T01:06:00Z,28.1530,-82.8010,-0.074,1111122 
COMPS,ioos:station:USF.COMPS:FHP:1,2015-09-02T01:12:00Z,28.1530,-82.8010,-0.065,1111122 
COMPS,ioos:station:USF.COMPS:FHP:1,2015-09-02T01:24:00Z,28.1530,-82.8010,-0.047,1111122 
COMPS,ioos:station:USF.COMPS:FHP:1,2015-09-02T01:30:00Z,28.1530,-82.8010,-0.038,1111122 
COMPS,ioos:station:USF.COMPS:FHP:1,2015-09-02T01:36:00Z,28.1530,-82.8010,-0.043,1111122 
COMPS,ioos:station:USF.COMPS:FHP:1,2015-09-02T01:42:00Z,28.1530,-82.8010,-0.05,1111122 
COMPS,ioos:station:USF.COMPS:FHP:1,2015-09-02T01:48:00Z,28.1530,-82.8010,-0.04,1111122 
COMPS,ioos:station:USF.COMPS:FHP:1,2015-09-02T01:54:00Z,28.1530,-82.8010,-0.04,1111122 
COMPS,ioos:station:USF.COMPS:FHP:1,2015-09-02T02:00:00Z,28.1530,-82.8010,-0.033,1111122 
COMPS,ioos:station:USF.COMPS:FHP:1,2015-09-02T02:06:00Z,28.1530,-82.8010,-0.03,1111122 
COMPS,ioos:station:USF.COMPS:FHP:1,2015-09-02T02:12:00Z,28.1530,-82.8010,-0.023,1111122 
COMPS,ioos:station:USF.COMPS:FHP:1,2015-09-02T02:24:00Z,28.1530,-82.8010,-0.016,1111122 
COMPS,ioos:station:USF.COMPS:FHP:1,2015-09-02T02:30:00Z,28.1530,-82.8010,-0.001,1111122 
COMPS,ioos:station:USF.COMPS:FHP:1,2015-09-02T02:42:00Z,28.1530,-82.8010,0.013,1111122 
COMPS,ioos:station:USF.COMPS:FHP:1,2015-09-02T02:48:00Z,28.1530,-82.8010,0.023,1111122 
COMPS,ioos:station:USF.COMPS:FHP:1,2015-09-02T02:54:00Z,28.1530,-82.8010,0.038,1111122 
COMPS,ioos:station:USF.COMPS:FHP:1,2015-09-02T03:00:00Z,28.1530,-82.8010,0.059,1111122 
COMPS,ioos:station:USF.COMPS:FHP:1,2015-09-02T03:06:00Z,28.1530,-82.8010,0.082,1111122 
COMPS,ioos:station:USF.COMPS:FHP:1,2015-09-02T03:12:00Z,28.1530,-82.8010,0.097,1111122 
COMPS,ioos:station:USF.COMPS:FHP:1,2015-09-02T03:18:00Z,28.1530,-82.8010,0.116,1111122 
COMPS,ioos:station:USF.COMPS:FHP:1,2015-09-02T03:24:00Z,28.1530,-82.8010,0.134,1111122 
COMPS,ioos:station:USF.COMPS:FHP:1,2015-09-02T03:30:00Z,28.1530,-82.8010,0.158,1111122 
COMPS,ioos:station:USF.COMPS:FHP:1,2015-09-02T03:36:00Z,28.1530,-82.8010,0.179,1111122 
COMPS,ioos:station:USF.COMPS:FHP:1,2015-09-02T03:42:00Z,28.1530,-82.8010,0.2,1111122 
COMPS,ioos:station:USF.COMPS:FHP:1,2015-09-02T03:48:00Z,28.1530,-82.8010,0.226,1111122 
COMPS,ioos:station:USF.COMPS:FHP:1,2015-09-02T03:54:00Z,28.1530,-82.8010,0.248,1111122 
COMPS,ioos:station:USF.COMPS:FHP:1,2015-09-02T04:00:00Z,28.1530,-82.8010,0.272,1111122 
COMPS,ioos:station:USF.COMPS:FHP:1,2015-09-02T04:06:00Z,28.1530,-82.8010,0.299,1111122 
COMPS,ioos:station:USF.COMPS:FHP:1,2015-09-02T04:12:00Z,28.1530,-82.8010,0.324,1111122 
COMPS,ioos:station:USF.COMPS:FHP:1,2015-09-02T04:18:00Z,28.1530,-82.8010,0.344,1111122 
COMPS,ioos:station:USF.COMPS:FHP:1,2015-09-02T04:24:00Z,28.1530,-82.8010,0.366,1111122 
COMPS,ioos:station:USF.COMPS:FHP:1,2015-09-02T04:30:00Z,28.1530,-82.8010,0.391,1111122 
COMPS,ioos:station:USF.COMPS:FHP:1,2015-09-02T04:36:00Z,28.1530,-82.8010,0.412,1111122 
COMPS,ioos:station:USF.COMPS:FHP:1,2015-09-02T04:42:00Z,28.1530,-82.8010,0.437,1111122 
COMPS,ioos:station:USF.COMPS:FHP:1,2015-09-02T04:48:00Z,28.1530,-82.8010,0.46,1111122 
COMPS,ioos:station:USF.COMPS:FHP:1,2015-09-02T04:54:00Z,28.1530,-82.8010,0.48,1111122 
COMPS,ioos:station:USF.COMPS:FHP:1,2015-09-02T05:00:00Z,28.1530,-82.8010,0.503,1111122 
COMPS,ioos:station:USF.COMPS:FHP:1,2015-09-02T05:06:00Z,28.1530,-82.8010,0.516,1111122 
COMPS,ioos:station:USF.COMPS:FHP:1,2015-09-02T05:12:00Z,28.1530,-82.8010,0.538,1111122 
COMPS,ioos:station:USF.COMPS:FHP:1,2015-09-02T05:18:00Z,28.1530,-82.8010,0.544,1111122 
COMPS,ioos:station:USF.COMPS:FHP:1,2015-09-02T05:24:00Z,28.1530,-82.8010,0.562,1111122 
COMPS,ioos:station:USF.COMPS:FHP:1,2015-09-02T05:30:00Z,28.1530,-82.8010,0.575,1111122 